Weather History for CYVR - August, 2014

Change the Weather History Date:

Tuesday, August 26, 2014

  Actual Average Record
Temperature  
Mean Temperature 68 °F -  
Max Temperature 76 °F 68 °F 78 °F (2005)
Min Temperature 61 °F 55 °F 51 °F (2008)
Cooling Degree Days 4    
Growing Degree Days 18 (Base 50)    
Moisture  
Dew Point 61 °F    
Average Humidity 76    
Maximum Humidity 94    
Minimum Humidity 51    
Precipitation  
Precipitation 0.00 in - - ()
Sea Level Pressure  
Sea Level Pressure 30.02 in    
Wind  
Wind Speed 3 mph ()    
Max Wind Speed 8 mph    
Max Gust Speed -    
Visibility 15.8 miles    
Events      
Averages and records for this station are not official NWS values.
T = Trace of Precipitation, MM = Missing Value Source: Averaged Metar Reports

Daily Weather History Graph

Daily Weather History Graph

Search for Another Location

Airport or City:

Trip Planner

Search our weather history database for the weather conditions in past years. The results will help you decide how hot, cold, wet, or windy it might be!

Date:

Astronomy

Aug. 26, 2014 Rise Set
Actual Time 6:20 AM PDT 8:07 PM PDT
Civil Twilight 5:46 AM PDT 8:40 PM PDT
Nautical Twilight 5:05 AM PDT 9:22 PM PDT
Astronomical Twilight 4:19 AM PDT 10:07 PM PDT
Moon 7:36 AM PDT (8/26) 8:19 PM PDT (8/26)
Length of Visible Light 14h 54m
Length of Day
13h 46m
New Moon, 1% of the Moon is Illuminated
Aug 26
New Moon
Sep 2
First Quarter
Sep 8
Full
Sep 15
Last Quarter
Sep 23
New

Hourly Weather History & Observations

Time (PDT) Temp. Dew Point Humidity Pressure Visibility Wind Dir Wind Speed Gust Speed Precip Events Conditions
12:00 AM 66.2 °F 59.0 °F 78% 30.00 in 15.0 mi Calm Calm - N/A   Clear
1:00 AM 64.4 °F 59.0 °F 83% 30.01 in 15.0 mi ESE 2.3 mph - N/A   Clear
2:00 AM 62.6 °F 59.0 °F 88% 30.01 in 15.0 mi East 3.5 mph - N/A   Clear
3:00 AM 62.6 °F 60.8 °F 94% 30.02 in 15.0 mi Calm Calm - N/A   Clear
4:00 AM 64.4 °F 59.0 °F 83% 30.02 in 15.0 mi NE 3.5 mph - N/A   Clear
5:00 AM 62 °F 59 °F 86% 30.03 in 15 mi East 4.6 mph - -  
5:00 AM 62.6 °F 59.0 °F 88% 30.02 in 15.0 mi East 4.6 mph - N/A   Clear
6:00 AM 62.6 °F 59.0 °F 88% 30.03 in 15.0 mi East 5.8 mph - N/A   Clear
7:00 AM 62.6 °F 60.8 °F 94% 30.04 in 15.0 mi SE 3.5 mph - N/A   Clear
8:00 AM 66.2 °F 60.8 °F 83% 30.06 in 15.0 mi ESE 4.6 mph - N/A   Clear
9:00 AM 69.8 °F 60.8 °F 73% 30.06 in 15.0 mi ESE 4.6 mph - N/A   Clear
10:00 AM 71.6 °F 59.0 °F 64% 30.06 in 15.0 mi East 3.5 mph - N/A   Clear
11:00 AM 73 °F 62 °F 61% 30.06 in 15 mi SSW 5.8 mph - -  
11:00 AM 73.4 °F 62.6 °F 69% 30.06 in 15.0 mi SW 8.1 mph - N/A   Clear
12:00 PM 71.6 °F 64.4 °F 78% 30.05 in 15.0 mi West 8.1 mph - N/A   Clear
1:00 PM 71.6 °F 64.4 °F 78% 30.04 in 15.0 mi WSW 6.9 mph - N/A   Clear
2:00 PM 75.2 °F 64.4 °F 69% 30.04 in 15.0 mi SW 6.9 mph - N/A   Partly Cloudy
3:00 PM 75.2 °F 62.6 °F 65% 30.03 in 15.0 mi SW 6.9 mph - N/A   Partly Cloudy
4:00 PM 75.2 °F 62.6 °F 65% 30.01 in 15.0 mi West 6.9 mph - N/A   Mostly Cloudy
5:00 PM 76 °F 61 °F 51% 30.00 in 19 mi West 5.8 mph - -   Mostly Cloudy
5:00 PM 75.2 °F 60.8 °F 61% 29.99 in 20.0 mi West 5.8 mph - N/A   Mostly Cloudy
6:00 PM 75.2 °F 64.4 °F 69% 29.98 in 30.0 mi West 3.5 mph - N/A   Mostly Cloudy
7:00 PM 73.4 °F 64.4 °F 73% 29.97 in 30.0 mi WNW 2.3 mph - N/A   Mostly Cloudy
8:00 PM 71.6 °F 62.6 °F 73% 29.97 in 30.0 mi West 2.3 mph - N/A   Mostly Cloudy
9:00 PM 68.0 °F 62.6 °F 83% 29.98 in 30.0 mi Calm Calm - N/A   Scattered Clouds
10:00 PM 68.0 °F 62.6 °F 83% 29.98 in 30.0 mi Calm Calm - N/A   Scattered Clouds
11:00 PM 68 °F 62 °F 76% 29.98 in 19 mi North 2.3 mph - -   Mostly Cloudy
11:00 PM 68.0 °F 62.6 °F 83% 29.98 in 20.0 mi Calm Calm - N/A   Mostly Cloudy